NOAA 16 DEB, 41213

Orbit data source: Space-Track

NOAA 16 DEB, 41213 is space debris in SSO originally from a launch on Thu, 21 Sep 2000 UTC launched from the Air Force Western Test Range (AFWTR). Debris objects in space refer to the collection of defunct objects orbiting the Earth. Examples of debris include non-operational satellites, rocket bodies, and fragments generated from explosions, collisions, or faulty payload assembly.

Loading next visibility...
Identifier
41213, 2000-055DS
Orbit
SSO
Country
Flag of USUS
Related business
Manufacturer
Unknown
Mission
Spacecraft
Bus & Motor
Unknown
Mass
Unknown
Launch date (UTC)
2000-09-21 (25 years ago)
Launch vehicle
Unknown
Launch site
Air Force Western Test Range (AFWTR)
Object type
Payload
Rocket body
Debris
Shape & HBR
Unknown shape, 0.1 m
Radar Cross Section
Small (<0.1 m²)

Expand to show TLE details & history
Last TLE update: 7 hours ago

TLE from 7 hours ago
0 NOAA 16 DEB
1 41213U 00055DS  25342.86220005  .00107285  00000-0  10119-1 0  9996
2 41213  98.9608 194.3589 0010598  17.2916 342.8658 14.93171746520524
Epoch: 2025-12-08T20:41Z
TLE epoch observation values (Epoch: 2025-12-08T20:41:34.084Z)
Latitude
-0.00009°
Longitude
166.11175°
Altitude
584.003 km
Speed
7.572 km/s
True Right ascension
12h 57m 26s
True Declination
0° 00' 00"
Sunlit
Object was in daylight at epoch
Visualization orbit readout
Latitude
Unknown
Longitude
Unknown
Altitude
Unknown
Speed
Unknown
Apparent Right ascension
Unknown
Apparent Declination
Unknown
Sunlit
N/A
Visualization observer readout
Local Sidereal Time
01:28:59
Azimuth
Unknown
Elevation
Unknown
Doppler factor
Unknown
Orbital elements
Apogee altitude
592.507 km
Perigee altitude
577.748 km
Semi-major axis
6,963.264 km
Eccentricity
0.00106
Inclination
98.9608°
RAAN
194.3589°
Arg. of periapsis
17.2916°
True anomaly
342.82998°
Mean anomaly
342.8658°
Eccentric anomaly
342.84789°
Mean motion
3.73529 °/min
Orbital period
96.38 mins
BSTAR
0.010119
Loading maneuver chart data...
Computing Atmospheric mass density...
Loading historical data...
Loading historical data...
Loading historical data...
Loading historical data...
Loading historical data...
Loading historical data...
Loading historical data...

Documentation

Showing up to 5 results
|